[[{"header":{"parameterUnit":"m.s-1","parameterCategory":1,"la1":30.2991,"la2":30.254,"lo1":-89.0895,"lo2":-89.0444,"dy":0.0017,"dx":0.0017,"nx":28,"ny":28,"refTime":"2025-07-20T03:00:00:Z","depth":0,"parameterNumber":2,"parameterNumberName":"U-component_of_WINDS"},"data":[0,0,0,0,0,0,0,0,0,0,0,0,0,0,0,0,0,0,0,0,0,0,0,0,0,0,0,0,0,0,0,0,0,0,0,0,0,0,0,0,0,0,0,0,0,0,0,0,0,0,0,0,0,0,0,0,0,0,1.7503,1.7503,0,1.7543,1.7544,1.7544,1.7572,1.7572,1.7572,1.7572,1.7616,1.7617,1.7618,0,0,0,0,0,0,0,0,0,0,0,0,0,1.7451,1.7452,1.7503,1.7503,1.7504,1.7543,1.7544,1.7544,1.7572,1.7572,1.7572,1.7572,1.7616,1.7617,1.7618,0,0,0,0,0,0,0,0,0,0,0,0,0,1.7481,1.7452,1.7502,1.7522,1.7524,1.7543,1.7544,1.7544,1.7572,1.7572,1.7572,1.7573,1.7616,1.7617,1.7618,1.7622,0,0,1.7623,1.7624,0,0,0,0,0,0,0,0,1.7479,1.7483,1.7519,1.7521,1.7523,1.7553,1.7542,1.757,1.7572,1.7554,1.7572,1.7573,1.7595,1.7598,1.7605,1.7624,1.7626,1.7623,1.7624,1.7625,1.7625,0,0,0,0,0,0,0,1.7477,1.7481,1.7519,1.7519,1.7522,1.753,1.7534,1.7547,1.7572,1.7555,1.7557,1.7562,1.7596,1.7604,1.7607,1.7626,1.7623,1.7624,1.7625,1.7626,1.765,1.765,0,0,0,0,0,0,1.7472,1.7479,1.7517,1.752,1.7501,1.753,1.7535,1.7543,1.7572,1.7577,1.7561,1.7563,1.7601,1.7605,1.7608,1.7614,1.7625,1.7626,1.7627,1.765,1.765,1.765,0,0,0,0,0,0,1.747,1.7475,1.7516,1.75,1.7506,1.7531,1.7539,1.7544,1.7551,1.7577,1.7582,1.7564,1.7601,1.7606,1.7618,1.7616,1.7627,1.7628,1.7651,1.765,1.765,1.7626,0,0,0,0,0,0,1.7469,1.7474,1.7475,1.75,1.7507,1.7524,1.7539,1.7544,1.7553,1.7555,1.7581,1.7585,1.7602,1.7616,1.762,1.7618,1.7629,1.7651,1.7651,1.765,1.7627,1.7625,1.7623,0,0,0,0,0,1.7467,1.7467,1.7475,1.7479,1.7508,1.7524,1.7528,1.7547,1.7553,1.7554,1.7571,1.7584,1.7616,1.7617,1.7621,1.762,1.7651,1.7651,1.765,1.7628,1.7625,1.7623,0,0,0,0,0,0,1.7442,1.7471,1.748,1.7488,1.7503,1.7529,1.7531,1.7543,1.7558,1.7559,1.7582,1.7588,1.7598,1.761,1.7611,1.7625,1.7635,1.7635,1.7617,1.7614,1.7612,1.7609,1.763,0,0,0,0,0,1.7437,1.7447,1.7472,1.7477,1.7484,1.7506,1.7514,1.7527,1.7544,1.7551,1.7568,1.7585,1.7599,1.7607,1.7621,1.7629,1.7635,1.7631,1.7629,1.7627,1.7627,1.7633,1.7631,1.7648,1.7648,1.7648,0,0,1.7428,1.7445,1.745,1.7472,1.7486,1.7496,1.7511,1.7522,1.753,1.7553,1.7565,1.7578,1.7599,1.7609,1.7614,1.7619,1.7624,1.7626,1.7624,1.7626,1.7632,1.763,1.7629,1.7648,1.7648,1.7648,0,0,1.7416,1.743,1.7435,1.7448,1.7468,1.7483,1.7484,1.7508,1.7518,1.753,1.7548,1.7558,1.7581,1.7595,1.7605,1.7598,1.7612,1.7603,1.7592,1.7597,1.7596,1.7594,1.7593,1.7591,1.7602,1.7602,1.7602,0,1.7402,1.7418,1.7437,1.7446,1.7456,1.7476,1.7482,1.7494,1.7518,1.7525,1.753,1.7559,1.7575,1.7588,1.7587,1.7594,1.7597,1.76,1.7594,1.7593,1.7592,1.7591,1.759,1.7601,1.7601,1.7601,1.7602,0,1.74,1.741,1.7413,1.7434,1.7444,1.7452,1.7473,1.7481,1.7493,1.7507,1.752,1.7539,1.7557,1.7561,1.7574,1.7577,1.758,1.7589,1.76,1.7589,1.7588,1.7588,1.7599,1.76,1.76,1.7601,0,0,1.7374,1.7406,1.7406,1.7416,1.744,1.7449,1.7458,1.7475,1.7481,1.7497,1.7505,1.7524,1.7533,1.7545,1.7559,1.7563,1.7558,1.7573,1.7573,1.7569,1.7563,1.7555,1.7554,1.7566,1.7566,1.7566,1.7561,0,1.7366,1.7382,1.7399,1.741,1.742,1.744,1.7447,1.7463,1.7477,1.7488,1.7504,1.7517,1.7528,1.7535,1.754,1.7557,1.7557,1.7558,1.7575,1.7575,1.7569,1.7554,1.7546,1.754,1.7561,1.7561,1.7561,0,1.7359,1.7373,1.7384,1.7406,1.7411,1.7418,1.7435,1.7445,1.7464,1.7474,1.7486,1.7501,1.7513,1.7521,1.7537,1.7538,1.7546,1.7555,1.7556,1.7558,1.7567,1.7556,1.7539,1.7538,1.756,1.756,1.756,0,1.7339,1.736,1.737,1.7378,1.7405,1.7409,1.742,1.7439,1.7448,1.7464,1.747,1.7487,1.7496,1.7509,1.7528,1.7533,1.7543,1.7553,1.7552,1.7551,1.7553,1.7553,1.7537,1.7558,1.7558,1.7558,1.7558,0,1.7328,1.7334,1.7361,1.7367,1.7375,1.7395,1.7402,1.7416,1.7432,1.7442,1.746,1.7469,1.7494,1.7506,1.7521,1.7532,1.7536,1.7545,1.7549,1.7543,1.7542,1.7549,1.755,1.7558,1.7558,1.7558,1.7558,0,1.7307,1.7325,1.7337,1.7361,1.7367,1.7372,1.7393,1.74,1.7415,1.7426,1.743,1.7454,1.7469,1.7489,1.7511,1.7521,1.753,1.7537,1.7524,1.7526,1.7524,1.7524,1.7512,1.7512,1.7533,1.7532,1.7532,0,1.7299,1.7304,1.7329,1.7336,1.7346,1.7358,1.7367,1.7388,1.7397,1.7419,1.7423,1.7439,1.7453,1.7476,1.7496,1.7512,1.7519,1.7514,1.7522,1.7516,1.7519,1.7519,1.752,1.7512,1.7512,1.7512,1.7511,0,1.7283,1.7292,1.7304,1.732,1.733,1.7344,1.7358,1.7363,1.7387,1.7397,1.7412,1.7422,1.7444,1.746,1.7479,1.7492,1.7506,1.7509,1.7509,1.7504,1.7496,1.75,1.7519,1.7509,1.7509,1.7509,1.7509,1.751,1.7269,1.7274,1.7292,1.7306,1.7318,1.7331,1.7339,1.7354,1.7367,1.7386,1.7397,1.7412,1.7431,1.7458,1.747,1.7482,1.7488,1.7489,1.7489,1.7489,1.7487,1.7494,1.7486,1.7486,1.7486,1.7486,1.7486,0,1.7254,1.7267,1.7278,1.7298,1.7308,1.7319,1.7336,1.7344,1.7357,1.7373,1.7386,1.7403,1.7419,1.744,1.7457,1.7463,1.747,1.7467,1.7467,1.7469,1.7481,1.7479,1.7461,1.7461,1.7461,1.7461,1.7461,1.7461,1.7248,1.7257,1.7268,1.7285,1.7298,1.7312,1.732,1.7332,1.7345,1.7364,1.7376,1.739,1.7408,1.7426,1.7442,1.7447,1.7453,1.7448,1.7456,1.7466,1.7469,1.7471,1.7469,1.7449,1.7449,1.7443,1.7443,1.7443]},{"header":{"parameterUnit":"m.s-1","parameterCategory":1,"la1":30.2991,"la2":30.254,"lo1":-89.0895,"lo2":-89.0444,"dy":0.0017,"dx":0.0017,"nx":28,"ny":28,"refTime":"2025-07-20T03:00:00:Z","depth":0,"parameterNumber":3,"parameterNumberName":"V-component_of_WINDS"},"data":[0,0,0,0,0,0,0,0,0,0,0,0,0,0,0,0,0,0,0,0,0,0,0,0,0,0,0,0,0,0,0,0,0,0,0,0,0,0,0,0,0,0,0,0,0,0,0,0,0,0,0,0,0,0,0,0,0,0,0.3341,0.334,0,0.3267,0.3267,0.3266,0.3239,0.3239,0.324,0.324,0.3163,0.316,0.3158,0,0,0,0,0,0,0,0,0,0,0,0,0,0.3456,0.3454,0.3341,0.334,0.3339,0.3267,0.3266,0.3265,0.3239,0.3239,0.324,0.324,0.3163,0.3161,0.3158,0,0,0,0,0,0,0,0,0,0,0,0,0,0.3397,0.3454,0.3341,0.3317,0.3315,0.3268,0.3266,0.3265,0.3239,0.3239,0.324,0.324,0.3164,0.3161,0.3158,0.3128,0,0,0.3147,0.3146,0,0,0,0,0,0,0,0,0.34,0.3393,0.3322,0.3319,0.3316,0.3263,0.3279,0.3219,0.3239,0.3268,0.324,0.324,0.3196,0.319,0.3175,0.3125,0.3122,0.3147,0.3145,0.3143,0.3142,0,0,0,0,0,0,0,0.3404,0.3396,0.3312,0.3321,0.3317,0.331,0.3302,0.3267,0.323,0.3265,0.3263,0.3255,0.3194,0.3178,0.3173,0.312,0.3147,0.3144,0.3142,0.314,0.3042,0.3041,0,0,0,0,0,0,0.3413,0.3399,0.3314,0.331,0.336,0.3307,0.3298,0.3279,0.3231,0.3224,0.3255,0.3254,0.3184,0.3177,0.317,0.3132,0.3143,0.314,0.3138,0.3042,0.3042,0.3041,0,0,0,0,0,0,0.3415,0.3406,0.3317,0.3354,0.3342,0.3305,0.3284,0.3278,0.3262,0.3223,0.3216,0.3245,0.3184,0.3175,0.3139,0.3129,0.3138,0.3135,0.3043,0.3042,0.3041,0.3056,0,0,0,0,0,0,0.3419,0.3407,0.3396,0.3354,0.334,0.3288,0.3283,0.3276,0.3256,0.3255,0.3212,0.3205,0.3184,0.3144,0.3136,0.3124,0.3133,0.3044,0.3043,0.3042,0.3056,0.3056,0.3056,0,0,0,0,0,0.3423,0.3403,0.3395,0.3385,0.3326,0.3287,0.3279,0.3255,0.3256,0.3244,0.3218,0.3207,0.3132,0.3141,0.3131,0.3118,0.3044,0.3043,0.3042,0.3057,0.3056,0.3056,0,0,0,0,0,0,0.3444,0.3397,0.3388,0.3354,0.3325,0.3283,0.3268,0.3256,0.3226,0.3225,0.3196,0.3186,0.3153,0.3132,0.3143,0.3087,0.3087,0.3084,0.3102,0.3101,0.3101,0.3106,0.313,0,0,0,0,0,0.3444,0.3418,0.3378,0.3351,0.3337,0.3305,0.3287,0.3271,0.324,0.3227,0.3199,0.3169,0.3138,0.3119,0.3088,0.3054,0.3043,0.304,0.304,0.304,0.3037,0.3016,0.3014,0.3037,0.3037,0.3037,0,0,0.3445,0.3416,0.3401,0.3355,0.333,0.3303,0.3295,0.3266,0.3245,0.3223,0.3187,0.3165,0.3129,0.3094,0.3077,0.3075,0.3028,0.3038,0.3038,0.3035,0.3015,0.3012,0.301,0.3036,0.3036,0.3036,0,0,0.3432,0.3408,0.3383,0.3359,0.3323,0.3301,0.3295,0.3255,0.324,0.3204,0.3186,0.3161,0.3109,0.3083,0.3064,0.3041,0.3029,0.3032,0.303,0.301,0.3008,0.3006,0.2997,0.2995,0.303,0.303,0.303,0,0.3438,0.3396,0.3372,0.3343,0.3323,0.3302,0.3276,0.3254,0.3209,0.3195,0.3195,0.3129,0.3103,0.3061,0.3055,0.304,0.3032,0.3037,0.3011,0.3008,0.3006,0.2998,0.2994,0.303,0.303,0.303,0.303,0,0.3404,0.3375,0.3359,0.3317,0.3295,0.3268,0.3238,0.3219,0.3205,0.3183,0.3146,0.3115,0.3077,0.3066,0.3052,0.3021,0.3022,0.3016,0.3016,0.3005,0.2996,0.2993,0.3031,0.3031,0.3031,0.3031,0,0,0.3402,0.3347,0.3341,0.3321,0.3279,0.3256,0.3228,0.3192,0.3175,0.3145,0.312,0.3077,0.3071,0.3049,0.3031,0.3014,0.2997,0.3011,0.3009,0.3008,0.2961,0.2965,0.2961,0.2989,0.2988,0.2988,0.2964,0,0.3383,0.3332,0.3309,0.3268,0.3241,0.322,0.3196,0.3167,0.3146,0.3119,0.3096,0.3065,0.3061,0.3047,0.3029,0.3003,0.2987,0.3005,0.2965,0.2963,0.2974,0.2957,0.2961,0.2939,0.296,0.2959,0.2959,0,0.3354,0.3324,0.3281,0.3242,0.3229,0.3208,0.3172,0.3147,0.3114,0.31,0.3075,0.3058,0.3027,0.3029,0.2985,0.2997,0.2979,0.2964,0.2963,0.2957,0.296,0.295,0.2932,0.2929,0.2954,0.2954,0.2954,0,0.3356,0.3305,0.3272,0.3256,0.321,0.3195,0.3175,0.3142,0.3121,0.309,0.3077,0.3042,0.3023,0.2997,0.2971,0.2975,0.2929,0.2929,0.2916,0.2916,0.2906,0.2907,0.2884,0.2896,0.2896,0.2896,0.2896,0,0.3337,0.3311,0.3272,0.3252,0.3222,0.3195,0.3166,0.3144,0.3115,0.309,0.307,0.3047,0.3014,0.2986,0.2966,0.2932,0.2924,0.2911,0.2906,0.2912,0.2914,0.29,0.29,0.2896,0.2896,0.2896,0.2896,0,0.3333,0.3307,0.3269,0.3229,0.3218,0.3197,0.3162,0.3141,0.312,0.3088,0.3079,0.3044,0.301,0.2982,0.2937,0.2924,0.2888,0.2882,0.2899,0.2896,0.2884,0.2886,0.2851,0.2845,0.2862,0.2862,0.2862,0,0.3323,0.3302,0.3259,0.3241,0.3221,0.3192,0.3172,0.3144,0.3123,0.3084,0.3067,0.3032,0.3002,0.2949,0.292,0.2885,0.2878,0.2868,0.2873,0.288,0.2877,0.2878,0.2875,0.2868,0.2868,0.2868,0.2868,0,0.3306,0.3294,0.3265,0.3231,0.3207,0.3178,0.315,0.3136,0.3103,0.3081,0.3046,0.3023,0.2978,0.2943,0.2905,0.2883,0.287,0.2867,0.2861,0.2868,0.2878,0.2871,0.2898,0.2867,0.2867,0.2867,0.2867,0.2867,0.3298,0.3278,0.3245,0.3213,0.3189,0.3162,0.3141,0.3116,0.3087,0.3048,0.3034,0.2998,0.2965,0.2913,0.2891,0.2862,0.2861,0.2854,0.2852,0.285,0.2851,0.2883,0.2856,0.2856,0.2856,0.2856,0.2855,0,0.3279,0.3257,0.3228,0.3189,0.3163,0.3153,0.3121,0.31,0.3069,0.304,0.3011,0.2971,0.2937,0.2905,0.2869,0.2852,0.2844,0.2843,0.2844,0.2839,0.2855,0.2862,0.2849,0.2849,0.2849,0.2849,0.2849,0.2849,0.3266,0.3233,0.3217,0.317,0.3148,0.3113,0.3096,0.3071,0.3047,0.3003,0.2975,0.2954,0.2923,0.2885,0.2853,0.2844,0.2831,0.2832,0.2821,0.2837,0.2838,0.2838,0.2845,0.2829,0.2829,0.2808,0.2807,0.2807]}]]